Regional Weather Roundup
Issued by NWS

Home | Current Version | Previous Version | Graphics & Text | Print | Product List | Glossary On
Versions: 1 2 3 4 5 6 7 8 9 10 11 12 13 14 15 16 17 18 19 20 21 22 23 24 25 26 27 28 29 30 31 32 33 34 35 36 37 38 39 40 41 42 43 44 45 46 47 48 49 50
000
ASUS43 KIND 261809
RWRIN

WEATHER ROUNDUP FOR INDIANA
NATIONAL WEATHER SERVICE INDIANAPOLIS IN
200 PM EDT WED APR 26 2017

NOTE: "FAIR" INDICATES FEW OR NO CLOUDS BELOW 12,000 FEET WITH NO
SIGNIFICANT WEATHER AND/OR OBSTRUCTIONS TO VISIBILITY.

* - STATION DOES NOT REPORT WEATHER SUCH AS PRECIPITATION OR FOG.

+ - STATION NOT QUALITY CONTROLLED BY THE NATIONAL WEATHER SERVICE.
    USE DATA WITH CAUTION...ESPECIALLY DEWPOINT AND RELATIVE
    HUMIDITY OBSERVATIONS.

INZ001>003-010>013-019-020-261900-
NORTHWEST INDIANA

CITY           SKY/WX    TMP DP  RH WIND       PRES   REMARKS
GARY /AIRPORT/ MOSUNNY   79  50  36 SW23G38   29.47S
KNOX *+        MOSUNNY   79  27  14 S20G31    29.47F
LA PORTE +     PTSUNNY   79  55  43 SW23G31   29.48S
6HR MIN TEMP:  63; 6HR MAX TEMP:  80;

MICHIGAN CITY+ MOSUNNY   81  54  39 SW21G28   29.47S
MONTICELLO +   MOSUNNY   81  53  37 SW18G26   29.50S
6HR MIN TEMP:  64; 6HR MAX TEMP:  81;

RENSSELAER +   MOSUNNY   81  48  32 SW22G32   29.50R
VALPARAISO     MOSUNNY   82  56  40 SW24G32   29.48S
6HR MIN TEMP:  64; 6HR MAX TEMP:  82;


$$

LMZ046-743>745-261900-
SOUTHERN LAKE MICHIGAN

STATION/POSITION TIME  TEMP    WIND        PRES    WAVE
                       AIR SEA DIR/SP/G            HT
                 (UTC) (F)     (DEG/KT/KT) (MB)    (FT)
BURNS HARBOR     1740   75     220/ 19/ 30  998.0S
MICHIGAN CITY    1740   76     200/ 24/ 29   N/A
5NW MICH CITY    1800   62 49                N/A     2

$$

INZ004-005-014>016-021>024-261900-
NORTH CENTRAL INDIANA

CITY           SKY/WX    TMP DP  RH WIND       PRES   REMARKS
ELKHART        MOSUNNY   81  59  47 SW23G29   29.50R
GOSHEN         SUNNY     80  58  46 S22G32    29.49S
6HR MIN TEMP:  63; 6HR MAX TEMP:  80;

LOGANSPORT +   MOSUNNY   81  57  44 SW18G29   29.52S
PERU/GRISSOM   SUNNY     80  61  52 S23G30    29.51S
6HR MIN TEMP:  63; 6HR MAX TEMP:  80;

ROCHESTER +    SUNNY     81  57  44 S16G29    29.51S
SOUTH BEND     PTSUNNY   77  59  53 S21G30    29.48S
6HR MIN TEMP:  62; 6HR MAX TEMP:  79;

WARSAW +       SUNNY     79  59  50 S12G28    29.51S

$$

INZ006>009-017-018-025>027-261900-
NORTHEAST INDIANA

CITY           SKY/WX    TMP DP  RH WIND       PRES   REMARKS
ANGOLA *+      SUNNY     79  72  78 S16       29.52F
AUBURN +       SUNNY     79  55  44 S12G22    29.54S
FORT WAYNE     MOSUNNY   80  60  50 S26G32    29.54F
6HR MIN TEMP:  60; 6HR MAX TEMP:  82;

HUNTINGTON +   SUNNY     79  59  50 S16G25    29.53S
KENDALLVILLE + MOSUNNY   78  60  54 S20G31    29.53F

$$

INZ028-029-035-036-043>045-051>053-261900-
WEST CENTRAL INDIANA

CITY           SKY/WX    TMP DP  RH WIND       PRES   REMARKS
CRAWFORDSVL +  SUNNY     80  57  45 SW17G25   29.54S
6HR MIN TEMP:  60; 6HR MAX TEMP:  80;

GREENCASTLE +  SUNNY     79  57  47 SW7G18    29.57R
LAFAYETTE      SUNNY     80  56  43 SW17G26   29.51S
6HR MIN TEMP:  63; 6HR MAX TEMP:  80;

TERRE HAUTE    SUNNY     81  57  43 S17G25    29.55S
6HR MIN TEMP:  65; 6HR MAX TEMP:  82;


$$

INZ030>032-037>040-046>048-054>057-064-065-261900-
CENTRAL INDIANA

CITY           SKY/WX    TMP DP  RH WIND       PRES   REMARKS
CP ATTERBURY + SUNNY     79  61  53 S18G26    29.58S
COLUMBUS       SUNNY     77  59  53 S20       29.59F
FISHERS *+     SUNNY     81  66  61 S21       29.55
FRANKFORT +    PTSUNNY   84  60  44 SW14G23   29.55S
6HR MIN TEMP:  65; 6HR MAX TEMP:  85;

GREENWOOD *+   SUNNY     81  60  49 S15G22    29.57S
6HR MIN TEMP:  62; 6HR MAX TEMP:  81;

INDIANAPOLIS   MOSUNNY   81  62  52 S15G24    29.55S
6HR MIN TEMP:  61; 6HR MAX TEMP:  81;

-EAGLE CREEK   SUNNY     81  60  48 S10G21    29.54F
6HR MIN TEMP:  63; 6HR MAX TEMP:  81;

KOKOMO +       SUNNY     81  61  50 S18G29    29.54S
6HR MIN TEMP:  62; 6HR MAX TEMP:  81;

MARION +       SUNNY     81  59  47 S22G30    29.54F
MT COMFORT *+  SUNNY     81  61  50 S22G31    29.57R
SHELBYVILLE    SUNNY     83  60  45 S25G36    29.57F
6HR MIN TEMP:  64; 6HR MAX TEMP:  83;

ZIONSVILLE +   SUNNY     80  60  50 S17G25    29.56R
6HR MIN TEMP:  63; 6HR MAX TEMP:  80;


$$

INZ033-034-041-042-049-050-058-059-261900-
EAST CENTRAL INDIANA

CITY           SKY/WX    TMP DP  RH WIND       PRES   REMARKS
MUNCIE         SUNNY     82  59  45 S17G29    29.55F
6HR MIN TEMP:  65; 6HR MAX TEMP:  82;

RICHMOND +     MOSUNNY   77  59  53 S22       29.63F

$$

INZ060-061-067>069-081>083-085>088-261900-
SOUTHWEST INDIANA

CITY           SKY/WX    TMP DP  RH WIND       PRES   REMARKS
EVANSVILLE     SUNNY     83  64  52 S15G24    29.59F
6HR MIN TEMP:  65; 6HR MAX TEMP:  83;

HUNTINGBURG *+ SUNNY     80  64  58 S21G28    29.60F
6HR MIN TEMP:  64; 6HR MAX TEMP:  80;

WASHINGTON +   SUNNY     82  56  41 S25       29.56F
6HR MIN TEMP:  64; 6HR MAX TEMP:  83; 6HR PCP:  0.10;


$$

INZ062-063-066-070>080-084-089>092-261900-
SOUTH CENTRAL AND SOUTHEAST INDIANA

CITY           SKY/WX    TMP DP  RH WIND       PRES   REMARKS
BEDFORD +      SUNNY     81  57  44 S16G22    29.59F
BLOOMINGTON    SUNNY     81  60  48 S14G28    29.57F
6HR MIN TEMP:  61; 6HR MAX TEMP:  81;

MADISON *+     SUNNY     79  59  50 S16G25    29.65F
NORTH VERNON + SUNNY     77  61  57 S15G26    29.62F
SEYMOUR +      SUNNY     82  63  51 S18G24    29.60F

$$





USA.gov is the U.S. government's official web portal to all federal, state and local government web resources and services.